Regional Weather Roundup
Issued by NWS Midland/Odessa, TX

Home | Current Version | Previous Version | Text Only | Print | Product List | Glossary On
Versions: 1 2 3 4 5 6 7 8 9 10 11 12 13 14 15 16 17 18 19 20 21 22 23 24 25 26 27 28 29 30 31 32 33 34 35 36 37 38 39 40 41 42 43 44 45 46 47 48 49 50
000
ASUS44 KMAF 270701
RWRMAF
MIDLAND AREA WEATHER ROUNDUP
NATIONAL WEATHER SERVICE MIDLAND TX
200 AM CDT MON MAR 27 2017

...IN SOUTHWEST TEXAS AND SOUTHEAST NEW MEXICO...

CITY           SKY/WX    TMP DP  RH WIND       PRES   REMARKS
ALPINE         CLEAR     47  23  38 SW8       30.06S
ANDREWS        FAIR      53  21  28 N6        29.91S
ARTESIA        CLEAR     55  18  22 N9        29.93S
BIG SPRING     CLOUDY    53  26  35 CALM      29.90S
CARLSBAD       CLEAR     59  18  20 SW12      29.90S
DRYDEN           N/A     65  24  21 NE7       29.87R
FORT STOCKTON  CLEAR     59  24  26 SW12      29.92S
GUAD PASS        N/A     57  19  22 MISG        N/A
HOBBS          CLEAR     46  18  31 NW7       29.96R
MARFA          CLEAR     44  20  38 CALM      30.04S
MIDLAND AIRPK  MOCLDY    61  22  22 NW15G22   29.90R
MIDLAND INTL   CLOUDY    63  19  18 W13       29.88S
ODESSA           N/A     62  20  19 MISG      29.89S
PECOS          CLEAR     57  24  27 SW9       29.90S
PRESIDIO       FAIR      68  23  18 W8        29.94S
SEMINOLE       PTCLDY    53  32  45 CALM      29.94R
SNYDER         CLEAR     56  36  46 N13       29.89R
WINK           CLEAR     56  19  23 NW6       29.88R
$$
...OTHER STATIONS IN TEXAS...

CITY           SKY/WX    TMP DP  RH WIND       PRES   REMARKS
ABILENE        CLEAR     59  39  47 N10       29.86R
AMARILLO       CLEAR     40  37  89 N12       29.96R WCI  33
AUSTIN         CLOUDY    73  67  81 S13G23    29.84S
BROWNSVILLE    CLEAR     74  70  87 S10       29.80F
CORPUS CHRISTI CLOUDY    72  70  93 SE14      29.82S
DALLAS FTW     PTCLDY    72  64  76 S24G33    29.74S
DEL RIO        CLEAR     65  58  78 N8        29.80R
EL PASO        CLEAR     61  20  20 SE8       29.97S
HOUSTON INT    PTCLDY    72  67  84 S8        29.89F
LUBBOCK        CLEAR     47  36  65 N12       29.93R
SAN ANGELO     CLEAR     50  33  52 S3        29.84R
SAN ANTONIO    CLOUDY    71  66  84 S15       29.85R
WACO           CLEAR     65  63  93 S10       29.82S
WICHITA FALLS  NOT AVBL
$$
...OTHER LOCATIONS IN NEW MEXICO...

CITY           SKY/WX    TMP DP  RH WIND       PRES   REMARKS
ALAMAGORDO     CLEAR     52  18  25 SE3       29.98S
ALBUQUERQUE    CLOUDY    47  23  38 E5        30.02S
CANNON AFB     CLEAR     42  38  86 N14       29.97R WCI  35
CLOVIS         CLEAR     41  34  75 N12       29.97S WCI  34
HOLLOMAN AFB   CLEAR     52  18  26 SE7       29.99F
ROSWELL        CLEAR     55  18  23 N7          N/A
RUIDOSO        PTCLDY    41  10  28 SW5       30.09S WCI  38
SANTA FE       CLOUDY    38  25  59 E5        30.03R WCI  34
TRUTH OR CONSE CLEAR     54  16  22 NW8       29.99S
TUCUMCARI      CLEAR     41  34  76 E3        29.97S
$$




USA.gov is the U.S. government's official web portal to all federal, state and local government web resources and services.